START_TIME,STEP,MOV.,A46,t_acc.,A13,t_acc.,M47,t_acc.,A17,t_acc.,A28,t_acc.,M38,t_acc.
1979-03-09 09:00:22.970 ,0,0,,0,0.,4.8,0.,4.8,,0,0.,4.8,0.,4.8
1979-03-09 09:00:27.770 ,0,0,,0,0.,4.8,0.,4.8,,0,0.,4.8,0.,4.8
1979-03-09 09:00:32.570 ,0,0,,0,0.,4.8,0.,4.8,,0,0.,4.8,0.,4.8
1979-03-09 09:00:37.370 ,0,0,,0,0.,4.8,0.,4.8,,0,0.,4.8,0.,4.8
1979-03-09 09:00:42.170 ,0,0,,0,0.,4.8,0.,4.8,,0,0.,4.8,0.,4.8
1979-03-09 09:00:46.960 ,1,0,,0,0.,4.8,0.,4.8,,0,0.,4.8,0.,4.8
1979-03-09 09:00:51.760 ,1,0,,0,0.,4.8,0.,4.8,,0,0.,4.8,0.,4.8
1979-03-09 09:00:56.560 ,1,0,,0,0.,4.8,0.,4.8,,0,0.,4.8,0.,4.8
1979-03-09 09:01:01.360 ,1,0,,0,0.,4.8,0.,4.8,,0,0.,4.8,0.,4.8
1979-03-09 09:01:06.160 ,1,0,,0,0.,4.8,0.,4.8,,0,0.,4.8,0.,4.8
1979-03-09 09:01:10.960 ,2,0,,0,0.,4.8,0.,4.8,,0,0.,4.8,0.,4.8
1979-03-09 09:01:15.760 ,2,0,,0,1.,4.8,0.,4.8,,0,0.,4.8,0.,4.8
1979-03-09 09:01:20.560 ,2,0,,0,0.,4.8,0.,4.8,,0,0.,4.8,1.,4.8
1979-03-09 09:01:25.360 ,2,0,,0,0.,4.8,0.,4.8,,0,0.,4.8,1.,4.8
1979-03-09 09:01:30.160 ,2,0,,0,0.,4.8,0.,4.8,,0,0.,4.8,0.,4.8
1979-03-09 09:01:34.960 ,3,0,,0,0.,4.8,0.,4.8,,0,0.,4.8,0.,4.8
1979-03-09 09:01:39.760 ,3,0,,0,0.,4.8,0.,4.8,,0,0.,4.8,0.,4.8
1979-03-09 09:01:44.560 ,3,0,,0,0.,4.8,0.,4.8,,0,0.,4.8,1.,4.8
1979-03-09 09:01:49.360 ,3,0,,0,1.,4.8,0.,4.8,,0,0.,4.8,1.,4.8
1979-03-09 09:01:54.160 ,3,0,,0,1.,4.8,0.,4.8,,0,0.,4.8,1.,4.8
1979-03-09 09:01:58.960 ,4,0,,0,4.,4.8,0.,4.8,,0,0.,4.8,3.,4.8
1979-03-09 09:02:03.760 ,4,0,,0,0.,4.8,0.,4.8,,0,0.,4.8,1.,4.8
1979-03-09 09:02:08.560 ,4,0,,0,2.,4.8,0.,4.8,,0,0.,4.8,0.,4.8
1979-03-09 09:02:13.360 ,4,0,,0,0.,4.8,0.,4.8,,0,0.,4.8,1.,4.8
1979-03-09 09:02:18.160 ,4,0,,0,0.,4.8,0.,4.8,,0,0.,4.8,0.,4.8
1979-03-09 09:02:22.960 ,5,0,,0,0.,4.8,0.,4.8,,0,0.,4.8,3.,4.8
1979-03-09 09:02:27.760 ,5,0,,0,0.,4.8,0.,4.8,,0,0.,4.8,1.,4.8
1979-03-09 09:02:32.560 ,5,0,,0,3.,4.8,2.,4.8,,0,0.,4.8,0.,4.8
1979-03-09 09:02:37.360 ,5,0,,0,2.,4.8,0.,4.8,,0,0.,4.8,2.,4.8
1979-03-09 09:02:42.160 ,5,0,,0,2.,4.8,0.,4.8,,0,0.,4.8,1.,4.8
1979-03-09 09:02:46.960 ,6,0,,0,4.,4.8,1.,4.8,,0,0.,4.8,1.,4.8
1979-03-09 09:02:51.760 ,6,0,,0,1.,4.8,1.,4.8,,0,0.,4.8,2.,4.8
1979-03-09 09:02:56.560 ,6,0,,0,1.,4.8,0.,4.8,,0,0.,4.8,0.,4.8
1979-03-09 09:03:01.360 ,6,0,,0,0.,4.8,0.,4.8,,0,0.,4.8,1.,4.8
1979-03-09 09:03:06.160 ,6,0,,0,0.,4.8,0.,4.8,,0,0.,4.8,0.,4.8
1979-03-09 09:03:10.960 ,7,0,,0,0.,4.8,0.,4.8,,0,0.,4.8,1.,4.8
1979-03-09 09:03:15.760 ,7,0,,0,0.,4.8,0.,4.8,,0,0.,4.8,2.,4.8
1979-03-09 09:03:20.560 ,7,0,,0,2.,4.8,0.,4.8,,0,0.,4.8,0.,4.8
1979-03-09 09:03:25.360 ,7,0,,0,4.,4.8,0.,4.8,,0,0.,4.8,0.,4.8
1979-03-09 09:03:30.160 ,7,0,,0,2.,4.8,0.,4.8,,0,0.,4.8,0.,4.8
1979-03-09 09:03:34.960 ,7,0,,0,3.,4.8,0.,4.8,,0,0.,4.8,0.,4.8
1979-03-09 09:03:39.760 ,7,0,,0,9.,4.8,0.,4.8,,0,0.,4.8,0.,4.8
1979-03-09 09:03:44.560 ,7,0,,0,5.,4.8,0.,4.8,,0,0.,4.8,0.,4.8
1979-03-09 09:03:49.360 ,7,0,,0,0.,4.8,0.,4.8,,0,0.,4.8,0.,4.8
1979-03-09 09:03:54.160 ,7,0,,0,0.,4.8,0.,4.8,,0,0.,4.8,0.,4.8
1979-03-09 09:03:58.960 ,6,0,,0,0.,4.8,0.,4.8,,0,0.,4.8,0.,4.8
1979-03-09 09:04:03.760 ,6,0,,0,0.,4.8,0.,4.8,,0,0.,4.8,0.,4.8
1979-03-09 09:04:08.560 ,6,0,,0,0.,4.8,0.,4.8,,0,0.,4.8,0.,4.8
1979-03-09 09:04:13.360 ,6,0,,0,1.,4.8,0.,4.8,,0,0.,4.8,0.,4.8
1979-03-09 09:04:18.160 ,6,0,,0,3.,4.8,0.,4.8,,0,0.,4.8,1.,4.8
1979-03-09 09:04:22.960 ,5,0,,0,1.,4.8,0.,4.8,,0,0.,4.8,1.,4.8
1979-03-09 09:04:27.760 ,5,0,,0,5.,4.8,0.,4.8,,0,0.,4.8,0.,4.8
1979-03-09 09:04:32.560 ,5,0,,0,2.,4.8,0.,4.8,,0,0.,4.8,2.,4.8
1979-03-09 09:04:37.360 ,5,0,,0,0.,4.8,0.,4.8,,0,0.,4.8,0.,4.8
1979-03-09 09:04:42.160 ,5,0,,0,0.,4.8,0.,4.8,,0,0.,4.8,1.,4.8
1979-03-09 09:04:46.960 ,4,0,,0,0.,4.8,0.,4.8,,0,0.,4.8,2.,4.8
1979-03-09 09:04:51.760 ,4,0,,0,0.,4.8,0.,4.8,,0,0.,4.8,1.,4.8
1979-03-09 09:04:56.560 ,4,0,,0,0.,4.8,0.,4.8,,0,0.,4.8,0.,4.8
1979-03-09 09:05:01.360 ,4,0,,0,3.,4.8,0.,4.8,,0,0.,4.8,1.,4.8
1979-03-09 09:05:06.160 ,4,0,,0,1.,4.8,0.,4.8,,0,0.,4.8,1.,4.8
1979-03-09 09:05:10.960 ,3,0,,0,2.,4.8,0.,4.8,,0,0.,4.8,0.,4.8
1979-03-09 09:05:15.760 ,3,0,,0,1.,4.8,0.,4.8,,0,0.,4.8,2.,4.8
1979-03-09 09:05:20.560 ,3,0,,0,3.,4.8,2.,4.8,,0,0.,4.8,0.,4.8
1979-03-09 09:05:25.360 ,3,0,,0,0.,4.8,0.,4.8,,0,0.,4.8,2.,4.8
1979-03-09 09:05:30.160 ,3,0,,0,0.,4.8,0.,4.8,,0,0.,4.8,1.,4.8
1979-03-09 09:05:34.960 ,2,0,,0,0.,4.8,0.,4.8,,0,0.,4.8,0.,4.8
1979-03-09 09:05:39.760 ,2,0,,0,0.,4.8,0.,4.8,,0,0.,4.8,1.,4.8
1979-03-09 09:05:44.560 ,2,0,,0,0.,4.8,0.,4.8,,0,0.,4.8,1.,4.8
1979-03-09 09:05:49.360 ,2,0,,0,3.,4.8,1.,4.8,,0,0.,4.8,1.,4.8
1979-03-09 09:05:54.160 ,2,0,,0,3.,4.8,0.,4.8,,0,0.,4.8,0.,4.8
1979-03-09 09:05:58.960 ,1,0,,0,1.,4.8,0.,4.8,,0,0.,4.8,0.,4.8
1979-03-09 09:06:03.760 ,1,0,,0,3.,4.8,1.,4.8,,0,0.,4.8,1.,4.8
1979-03-09 09:06:08.560 ,1,0,,0,1.,4.8,0.,4.8,,0,0.,4.8,0.,4.8
1979-03-09 09:06:13.360 ,1,0,,0,0.,4.8,0.,4.8,,0,0.,4.8,1.,4.8
1979-03-09 09:06:18.160 ,1,0,,0,0.,4.8,0.,4.8,,0,0.,4.8,0.,4.8
1979-03-09 09:06:22.960 ,0,0,,0,0.,4.8,0.,4.8,,0,0.,4.8,0.,4.8
1979-03-09 09:06:27.760 ,0,0,,0,0.,4.8,0.,4.8,,0,0.,4.8,0.,4.8
1979-03-09 09:06:32.560 ,0,0,,0,0.,4.8,0.,4.8,,0,0.,4.8,0.,4.8
1979-03-09 09:06:37.360 ,0,0,,0,1.,4.8,0.,4.8,,0,0.,4.8,0.,4.8
1979-03-09 09:06:42.160 ,0,0,,0,1.,4.8,0.,4.8,,0,0.,4.8,0.,4.8
1979-03-09 09:06:46.960 ,0,0,,0,1.,4.8,0.,4.8,,0,0.,4.8,0.,4.8
1979-03-09 09:06:51.760 ,0,0,,0,0.,4.8,0.,4.8,,0,0.,4.8,0.,4.8
1979-03-09 09:06:56.560 ,0,0,,0,0.,4.8,0.,4.8,,0,0.,4.8,0.,4.8
1979-03-09 09:07:01.360 ,0,0,,0,0.,4.8,0.,4.8,,0,0.,4.8,0.,4.8
1979-03-09 09:07:06.160 ,0,0,,0,0.,4.8,0.,4.8,,0,0.,4.8,0.,4.8
1979-03-09 09:07:10.960 ,1,0,,0,0.,4.8,0.,4.8,,0,0.,4.8,0.,4.8
1979-03-09 09:07:15.760 ,1,0,,0,0.,4.8,0.,4.8,,0,0.,4.8,0.,4.8
1979-03-09 09:07:20.560 ,1,0,,0,0.,4.8,0.,4.8,,0,0.,4.8,0.,4.8
1979-03-09 09:07:25.360 ,1,0,,0,3.,4.8,0.,4.8,,0,0.,4.8,0.,4.8
1979-03-09 09:07:30.160 ,1,0,,0,1.,4.8,0.,4.8,,0,0.,4.8,0.,4.8
1979-03-09 09:07:34.960 ,2,0,,0,2.,4.8,1.,4.8,,0,0.,4.8,0.,4.8
1979-03-09 09:07:39.760 ,2,0,,0,2.,4.8,1.,4.8,,0,0.,4.8,2.,4.8
1979-03-09 09:07:44.560 ,2,0,,0,1.,4.8,1.,4.8,,0,0.,4.8,0.,4.8
1979-03-09 09:07:49.360 ,2,0,,0,0.,4.8,0.,4.8,,0,0.,4.8,0.,4.8
1979-03-09 09:07:54.160 ,2,0,,0,0.,4.8,0.,4.8,,0,0.,4.8,0.,4.8
1979-03-09 09:07:58.960 ,3,0,,0,0.,4.8,0.,4.8,,0,0.,4.8,0.,4.8
1979-03-09 09:08:03.760 ,3,0,,0,0.,4.8,0.,4.8,,0,0.,4.8,1.,4.8
1979-03-09 09:08:08.560 ,3,0,,0,1.,4.8,0.,4.8,,0,0.,4.8,0.,4.8
1979-03-09 09:08:13.360 ,3,0,,0,3.,4.8,3.,4.8,,0,0.,4.8,4.,4.8
1979-03-09 09:08:18.160 ,3,0,,0,0.,4.8,0.,4.8,,0,0.,4.8,0.,4.8
1979-03-09 09:08:22.960 ,4,0,,0,2.,4.8,0.,4.8,,0,0.,4.8,1.,4.8
1979-03-09 09:08:27.760 ,4,0,,0,1.,4.8,0.,4.8,,0,0.,4.8,3.,4.8
1979-03-09 09:08:32.560 ,4,0,,0,2.,4.8,0.,4.8,,0,0.,4.8,1.,4.8
1979-03-09 09:08:37.360 ,4,0,,0,0.,4.8,0.,4.8,,0,0.,4.8,0.,4.8
1979-03-09 09:08:42.160 ,4,0,,0,0.,4.8,0.,4.8,,0,0.,4.8,1.,4.8
1979-03-09 09:08:46.960 ,5,0,,0,0.,4.8,0.,4.8,,0,0.,4.8,1.,4.8
1979-03-09 09:08:51.760 ,5,0,,0,0.,4.8,0.,4.8,,0,0.,4.8,0.,4.8
1979-03-09 09:08:56.560 ,5,0,,0,1.,4.8,0.,4.8,,0,0.,4.8,1.,4.8
1979-03-09 09:09:01.360 ,5,0,,0,5.,4.8,1.,4.8,,0,0.,4.8,0.,4.8
1979-03-09 09:09:06.160 ,5,0,,0,5.,4.8,0.,4.8,,0,0.,4.8,1.,4.8
1979-03-09 09:09:10.960 ,6,0,,0,0.,4.8,0.,4.8,,0,0.,4.8,0.,4.8
1979-03-09 09:09:15.760 ,6,0,,0,1.,4.8,0.,4.8,,0,0.,4.8,0.,4.8
1979-03-09 09:09:20.560 ,6,0,,0,2.,4.8,0.,4.8,,0,0.,4.8,1.,4.8
1979-03-09 09:09:25.360 ,6,0,,0,0.,4.8,0.,4.8,,0,0.,4.8,1.,4.8
1979-03-09 09:09:30.160 ,6,0,,0,0.,4.8,0.,4.8,,0,0.,4.8,0.,4.8
1979-03-09 09:09:34.960 ,7,0,,0,0.,4.8,0.,4.8,,0,0.,4.8,1.,4.8
1979-03-09 09:09:39.760 ,7,0,,0,0.,4.8,0.,4.8,,0,0.,4.8,0.,4.8
1979-03-09 09:09:44.560 ,7,0,,0,1.,4.8,0.,4.8,,0,0.,4.8,0.,4.8
1979-03-09 09:09:49.360 ,7,0,,0,7.,4.8,0.,4.8,,0,0.,4.8,0.,4.8
1979-03-09 09:09:54.160 ,7,0,,0,4.,4.8,0.,4.8,,0,0.,4.8,0.,4.8
1979-03-09 09:09:58.960 ,7,0,,0,5.,4.8,0.,4.8,,0,0.,4.8,0.,4.8
1979-03-09 09:10:03.760 ,7,0,,0,5.,4.8,0.,4.8,,0,0.,4.8,0.,4.8
1979-03-09 09:10:08.560 ,7,0,,0,4.,4.8,0.,4.8,,0,0.,4.8,0.,4.8
1979-03-09 09:10:13.360 ,7,0,,0,0.,4.8,0.,4.8,,0,0.,4.8,0.,4.8
1979-03-09 09:10:18.160 ,7,0,,0,0.,4.8,0.,4.8,,0,0.,4.8,0.,4.8
1979-03-09 09:10:22.950 ,6,0,,0,0.,4.8,0.,4.8,,0,0.,4.8,0.,4.8
1979-03-09 09:10:27.750 ,6,0,,0,0.,4.8,0.,4.8,,0,0.,4.8,0.,4.8
1979-03-09 09:10:32.550 ,6,0,,0,0.,4.8,0.,4.8,,0,0.,4.8,0.,4.8
1979-03-09 09:10:37.350 ,6,0,,0,0.,4.8,0.,4.8,,0,0.,4.8,0.,4.8
1979-03-09 09:10:42.150 ,6,0,,0,3.,4.8,1.,4.8,,0,0.,4.8,1.,4.8
1979-03-09 09:10:46.950 ,5,0,,0,2.,4.8,1.,4.8,,0,0.,4.8,0.,4.8
1979-03-09 09:10:51.750 ,5,0,,0,2.,4.8,0.,4.8,,0,0.,4.8,1.,4.8
1979-03-09 09:10:56.550 ,5,0,,0,0.,4.8,0.,4.8,,0,0.,4.8,1.,4.8
1979-03-09 09:11:01.350 ,5,0,,0,0.,4.8,0.,4.8,,0,0.,4.8,3.,4.8
1979-03-09 09:11:06.150 ,5,0,,0,0.,4.8,0.,4.8,,0,0.,4.8,0.,4.8
1979-03-09 09:11:10.950 ,4,0,,0,0.,4.8,0.,4.8,,0,0.,4.8,2.,4.8
1979-03-09 09:11:15.750 ,4,0,,0,0.,4.8,0.,4.8,,0,0.,4.8,3.,4.8
1979-03-09 09:11:20.550 ,4,0,,0,1.,4.8,0.,4.8,,0,0.,4.8,0.,4.8
1979-03-09 09:11:25.350 ,4,0,,0,1.,4.8,0.,4.8,,0,0.,4.8,2.,4.8
1979-03-09 09:11:30.150 ,4,0,,0,1.,4.8,0.,4.8,,0,0.,4.8,2.,4.8
1979-03-09 09:11:34.950 ,3,0,,0,1.,4.8,0.,4.8,,0,0.,4.8,0.,4.8
1979-03-09 09:11:39.750 ,3,0,,0,4.,4.8,0.,4.8,,0,0.,4.8,1.,4.8
1979-03-09 09:11:44.550 ,3,0,,0,2.,4.8,0.,4.8,,0,0.,4.8,4.,4.8
1979-03-09 09:11:49.350 ,3,0,,0,0.,4.8,0.,4.8,,0,0.,4.8,4.,4.8
1979-03-09 09:11:54.150 ,3,0,,0,0.,4.8,0.,4.8,,0,0.,4.8,0.,4.8
1979-03-09 09:11:58.950 ,2,0,,0,0.,4.8,0.,4.8,,0,0.,4.8,1.,4.8
1979-03-09 09:12:03.750 ,2,0,,0,0.,4.8,0.,4.8,,0,0.,4.8,0.,4.8
1979-03-09 09:12:08.550 ,2,0,,0,0.,4.8,0.,4.8,,0,0.,4.8,3.,4.8
1979-03-09 09:12:13.350 ,2,0,,0,3.,4.8,1.,4.8,,0,0.,4.8,1.,4.8
1979-03-09 09:12:18.150 ,2,0,,0,0.,4.8,0.,4.8,,0,0.,4.8,3.,4.8
1979-03-09 09:12:22.950 ,1,0,,0,3.,4.8,0.,4.8,,0,0.,4.8,1.,4.8
1979-03-09 09:12:27.750 ,1,0,,0,5.,4.8,0.,4.8,,0,0.,4.8,0.,4.8
1979-03-09 09:12:32.550 ,1,0,,0,2.,4.8,1.,4.8,,0,0.,4.8,0.,4.8
1979-03-09 09:12:37.350 ,1,0,,0,0.,4.8,0.,4.8,,0,0.,4.8,1.,4.8
1979-03-09 09:12:42.150 ,1,0,,0,0.,4.8,0.,4.8,,0,0.,4.8,0.,4.8
1979-03-09 09:12:46.950 ,0,0,,0,0.,4.8,0.,4.8,,0,0.,4.8,1.,4.8
1979-03-09 09:12:51.750 ,0,0,,0,0.,4.8,0.,4.8,,0,0.,4.8,3.,4.8
1979-03-09 09:12:56.550 ,0,0,,0,0.,4.8,0.,4.8,,0,0.,4.8,0.,4.8
1979-03-09 09:13:01.350 ,0,0,,0,0.,4.8,0.,4.8,,0,0.,4.8,0.,4.8
1979-03-09 09:13:06.150 ,0,0,,0,1.,4.8,0.,4.8,,0,0.,4.8,0.,4.8
1979-03-09 09:13:10.950 ,0,0,,0,2.,4.8,1.,4.8,,0,0.,4.8,0.,4.8
1979-03-09 09:13:15.750 ,0,0,,0,0.,4.8,0.,4.8,,0,0.,4.8,1.,4.8
1979-03-09 09:13:20.550 ,0,0,,0,1.,4.8,0.,4.8,,0,0.,4.8,0.,4.8
1979-03-09 09:13:25.350 ,0,0,,0,0.,4.8,0.,4.8,,0,0.,4.8,0.,4.8
1979-03-09 09:13:30.150 ,0,0,,0,0.,4.8,0.,4.8,,0,0.,4.8,1.,4.8
1979-03-09 09:13:34.950 ,1,0,,0,0.,4.8,0.,4.8,,0,0.,4.8,0.,4.8
1979-03-09 09:13:39.750 ,1,0,,0,0.,4.8,0.,4.8,,0,0.,4.8,0.,4.8
1979-03-09 09:13:44.550 ,1,0,,0,0.,4.8,0.,4.8,,0,0.,4.8,0.,4.8
1979-03-09 09:13:49.350 ,1,0,,0,2.,4.8,0.,4.8,,0,0.,4.8,0.,4.8
1979-03-09 09:13:54.150 ,1,0,,0,0.,4.8,0.,4.8,,0,0.,4.8,0.,4.8
1979-03-09 09:13:58.950 ,2,0,,0,1.,4.8,0.,4.8,,0,0.,4.8,1.,4.8
1979-03-09 09:14:03.750 ,2,0,,0,0.,4.8,0.,4.8,,0,0.,4.8,2.,4.8
1979-03-09 09:14:08.550 ,2,0,,0,3.,4.8,0.,4.8,,0,0.,4.8,1.,4.8
1979-03-09 09:14:13.350 ,2,0,,0,0.,4.8,0.,4.8,,0,0.,4.8,1.,4.8
1979-03-09 09:14:18.150 ,2,0,,0,0.,4.8,0.,4.8,,0,0.,4.8,0.,4.8
1979-03-09 09:14:22.950 ,3,0,,0,0.,4.8,0.,4.8,,0,0.,4.8,0.,4.8
1979-03-09 09:14:27.750 ,3,0,,0,0.,4.8,0.,4.8,,0,0.,4.8,0.,4.8
1979-03-09 09:14:32.550 ,3,0,,0,0.,4.8,0.,4.8,,0,0.,4.8,1.,4.8
1979-03-09 09:14:37.350 ,3,0,,0,5.,4.8,0.,4.8,,0,0.,4.8,1.,4.8
1979-03-09 09:14:42.150 ,3,0,,0,0.,4.8,0.,4.8,,0,0.,4.8,0.,4.8
1979-03-09 09:14:46.950 ,4,0,,0,3.,4.8,1.,4.8,,0,0.,4.8,1.,4.8
1979-03-09 09:14:51.750 ,4,0,,0,1.,4.8,1.,4.8,,0,0.,4.8,0.,4.8
1979-03-09 09:14:56.550 ,4,0,,0,1.,4.8,0.,4.8,,0,0.,4.8,4.,4.8
1979-03-09 09:15:01.350 ,4,0,,0,0.,4.8,0.,4.8,,0,0.,4.8,0.,4.8
1979-03-09 09:15:06.150 ,4,0,,0,0.,4.8,0.,4.8,,0,0.,4.8,2.,4.8
1979-03-09 09:15:10.950 ,5,0,,0,0.,4.8,0.,4.8,,0,0.,4.8,2.,4.8
1979-03-09 09:15:15.750 ,5,0,,0,0.,4.8,0.,4.8,,0,0.,4.8,0.,4.8
1979-03-09 09:15:20.550 ,5,0,,0,0.,4.8,0.,4.8,,0,0.,4.8,2.,4.8
1979-03-09 09:15:25.350 ,5,0,,0,2.,4.8,0.,4.8,,0,0.,4.8,1.,4.8
1979-03-09 09:15:30.150 ,5,0,,0,5.,4.8,0.,4.8,,0,0.,4.8,0.,4.8
1979-03-09 09:15:34.950 ,6,0,,0,1.,4.8,0.,4.8,,0,0.,4.8,2.,4.8
1979-03-09 09:15:39.750 ,6,0,,0,0.,4.8,0.,4.8,,0,0.,4.8,0.,4.8
1979-03-09 09:15:44.550 ,6,0,,0,1.,4.8,0.,4.8,,0,0.,4.8,0.,4.8
1979-03-09 09:15:49.350 ,6,0,,0,0.,4.8,0.,4.8,,0,0.,4.8,1.,4.8
1979-03-09 09:15:54.150 ,6,0,,0,0.,4.8,0.,4.8,,0,0.,4.8,0.,4.8
1979-03-09 09:15:58.950 ,7,0,,0,0.,4.8,0.,4.8,,0,0.,4.8,0.,4.8
1979-03-09 09:16:03.750 ,7,0,,0,0.,4.8,0.,4.8,,0,0.,4.8,1.,4.8
1979-03-09 09:16:08.550 ,7,0,,0,1.,4.8,0.,4.8,,0,0.,4.8,0.,4.8
1979-03-09 09:16:13.350 ,7,0,,0,4.,4.8,0.,4.8,,0,0.,4.8,0.,4.8
1979-03-09 09:16:18.150 ,7,0,,0,6.,4.8,0.,4.8,,0,0.,4.8,0.,4.8
1979-03-09 09:16:22.950 ,7,0,,0,4.,4.8,0.,4.8,,0,0.,4.8,0.,4.8
1979-03-09 09:16:27.750 ,7,0,,0,2.,4.8,0.,4.8,,0,0.,4.8,0.,4.8
1979-03-09 09:16:32.550 ,7,0,,0,2.,4.8,0.,4.8,,0,0.,4.8,0.,4.8
1979-03-09 09:16:37.350 ,7,0,,0,0.,4.8,0.,4.8,,0,0.,4.8,0.,4.8
1979-03-09 09:16:42.150 ,7,0,,0,0.,4.8,0.,4.8,,0,0.,4.8,0.,4.8
1979-03-09 09:16:46.950 ,6,0,,0,0.,4.8,0.,4.8,,0,0.,4.8,0.,4.8
1979-03-09 09:16:51.750 ,6,0,,0,0.,4.8,0.,4.8,,0,0.,4.8,0.,4.8
1979-03-09 09:16:56.550 ,6,0,,0,0.,4.8,0.,4.8,,0,0.,4.8,1.,4.8
1979-03-09 09:17:01.350 ,6,0,,0,2.,4.8,0.,4.8,,0,0.,4.8,0.,4.8
1979-03-09 09:17:06.150 ,6,0,,0,3.,4.8,0.,4.8,,0,0.,4.8,1.,4.8
1979-03-09 09:17:10.950 ,5,0,,0,4.,4.8,0.,4.8,,0,0.,4.8,2.,4.8
1979-03-09 09:17:15.750 ,5,0,,0,3.,4.8,1.,4.8,,0,0.,4.8,2.,4.8
1979-03-09 09:17:20.550 ,5,0,,0,3.,4.8,0.,4.8,,0,0.,4.8,0.,4.8
1979-03-09 09:17:25.350 ,5,0,,0,0.,4.8,0.,4.8,,0,0.,4.8,2.,4.8
1979-03-09 09:17:30.150 ,5,0,,0,0.,4.8,0.,4.8,,0,0.,4.8,2.,4.8
1979-03-09 09:17:34.950 ,4,0,,0,0.,4.8,0.,4.8,,0,0.,4.8,1.,4.8
1979-03-09 09:17:39.750 ,4,0,,0,0.,4.8,0.,4.8,,0,0.,4.8,1.,4.8
1979-03-09 09:17:44.550 ,4,0,,0,1.,4.8,0.,4.8,,0,0.,4.8,2.,4.8
1979-03-09 09:17:49.350 ,4,0,,0,0.,4.8,0.,4.8,,0,0.,4.8,2.,4.8
1979-03-09 09:17:54.150 ,4,0,,0,3.,4.8,0.,4.8,,0,0.,4.8,0.,4.8
1979-03-09 09:17:58.950 ,3,0,,0,7.,4.8,0.,4.8,,0,0.,4.8,2.,4.8
1979-03-09 09:18:03.750 ,3,0,,0,1.,4.8,0.,4.8,,0,0.,4.8,4.,4.8
1979-03-09 09:18:08.550 ,3,0,,0,4.,4.8,0.,4.8,,0,0.,4.8,0.,4.8
1979-03-09 09:18:13.350 ,3,0,,0,1.,4.8,0.,4.8,,0,0.,4.8,2.,4.8
1979-03-09 09:18:18.150 ,3,0,,0,0.,4.8,0.,4.8,,0,0.,4.8,0.,4.8
1979-03-09 09:18:22.940 ,2,0,,0,0.,4.8,0.,4.8,,0,0.,4.8,2.,4.8
1979-03-09 09:18:27.740 ,2,0,,0,0.,4.8,0.,4.8,,0,0.,4.8,0.,4.8
1979-03-09 09:18:32.540 ,2,0,,0,1.,4.8,0.,4.8,,0,0.,4.8,1.,4.8
1979-03-09 09:18:37.340 ,2,0,,0,3.,4.8,0.,4.8,,0,0.,4.8,1.,4.8
1979-03-09 09:18:42.150 ,2,0,,0,2.,4.8,0.,4.8,,0,0.,4.8,1.,4.8
1979-03-09 09:18:46.940 ,1,0,,0,1.,4.8,1.,4.8,,0,0.,4.8,0.,4.8
1979-03-09 09:18:51.740 ,1,0,,0,3.,4.8,0.,4.8,,0,0.,4.8,0.,4.8
1979-03-09 09:18:56.540 ,1,0,,0,1.,4.8,0.,4.8,,0,0.,4.8,0.,4.8
1979-03-09 09:19:01.340 ,1,0,,0,0.,4.8,0.,4.8,,0,0.,4.8,0.,4.8
1979-03-09 09:19:06.140 ,1,0,,0,0.,4.8,0.,4.8,,0,0.,4.8,1.,4.8
1979-03-09 09:19:10.940 ,0,0,,0,0.,4.8,0.,4.8,,0,0.,4.8,0.,4.8
1979-03-09 09:19:15.740 ,0,0,,0,0.,4.8,0.,4.8,,0,0.,4.8,0.,4.8
1979-03-09 09:19:20.540 ,0,0,,0,1.,4.8,0.,4.8,,0,0.,4.8,0.,4.8
1979-03-09 09:19:25.340 ,0,0,,0,2.,4.8,0.,4.8,,0,0.,4.8,1.,4.8
1979-03-09 09:19:30.140 ,0,0,,0,0.,4.8,0.,4.8,,0,0.,4.8,0.,4.8
1979-03-09 09:19:34.940 ,0,0,,0,0.,4.8,0.,4.8,,0,0.,4.8,0.,4.8
1979-03-09 09:19:39.740 ,0,0,,0,1.,4.8,0.,4.8,,0,0.,4.8,0.,4.8
1979-03-09 09:19:44.540 ,0,0,,0,0.,4.8,0.,4.8,,0,0.,4.8,0.,4.8
1979-03-09 09:19:49.340 ,0,0,,0,0.,4.8,0.,4.8,,0,0.,4.8,0.,4.8
1979-03-09 09:19:54.140 ,0,0,,0,0.,4.8,0.,4.8,,0,0.,4.8,0.,4.8
1979-03-09 09:19:58.940 ,1,0,,0,0.,4.8,0.,4.8,,0,0.,4.8,0.,4.8
1979-03-09 09:20:03.740 ,1,0,,0,0.,4.8,0.,4.8,,0,0.,4.8,0.,4.8
1979-03-09 09:20:08.540 ,1,0,,0,2.,4.8,0.,4.8,,0,0.,4.8,1.,4.8
1979-03-09 09:20:13.340 ,1,0,,0,3.,4.8,0.,4.8,,0,0.,4.8,0.,4.8
1979-03-09 09:20:18.140 ,1,0,,0,1.,4.8,0.,4.8,,0,0.,4.8,1.,4.8
1979-03-09 09:20:22.940 ,2,0,,0,1.,4.8,0.,4.8,,0,0.,4.8,0.,4.8
1979-03-09 09:20:27.740 ,2,0,,0,5.,4.8,0.,4.8,,0,0.,4.8,1.,4.8
1979-03-09 09:20:32.540 ,2,0,,0,0.,4.8,0.,4.8,,0,0.,4.8,0.,4.8
1979-03-09 09:20:37.340 ,2,0,,0,0.,4.8,0.,4.8,,0,0.,4.8,2.,4.8
1979-03-09 09:20:42.140 ,2,0,,0,0.,4.8,0.,4.8,,0,0.,4.8,0.,4.8
1979-03-09 09:20:46.940 ,3,0,,0,0.,4.8,0.,4.8,,0,0.,4.8,1.,4.8
1979-03-09 09:20:51.740 ,3,0,,0,0.,4.8,0.,4.8,,0,0.,4.8,2.,4.8
1979-03-09 09:20:56.540 ,3,0,,0,0.,4.8,0.,4.8,,0,0.,4.8,3.,4.8
1979-03-09 09:21:01.340 ,3,0,,0,2.,4.8,0.,4.8,,0,0.,4.8,2.,4.8
1979-03-09 09:21:06.140 ,3,0,,0,2.,4.8,0.,4.8,,0,0.,4.8,1.,4.8
1979-03-09 09:21:10.940 ,4,0,,0,3.,4.8,0.,4.8,,0,0.,4.8,2.,4.8
1979-03-09 09:21:15.740 ,4,0,,0,4.,4.8,0.,4.8,,0,0.,4.8,2.,4.8
1979-03-09 09:21:20.540 ,4,0,,0,2.,4.8,0.,4.8,,0,0.,4.8,1.,4.8
1979-03-09 09:21:25.340 ,4,0,,0,0.,4.8,0.,4.8,,0,0.,4.8,0.,4.8
1979-03-09 09:21:30.140 ,4,0,,0,0.,4.8,0.,4.8,,0,0.,4.8,2.,4.8
1979-03-09 09:21:34.940 ,5,0,,0,0.,4.8,0.,4.8,,0,0.,4.8,1.,4.8
1979-03-09 09:21:39.740 ,5,0,,0,0.,4.8,0.,4.8,,0,0.,4.8,1.,4.8
1979-03-09 09:21:44.540 ,5,0,,0,1.,4.8,0.,4.8,,0,0.,4.8,0.,4.8
1979-03-09 09:21:49.340 ,5,0,,0,2.,4.8,0.,4.8,,0,0.,4.8,0.,4.8
1979-03-09 09:21:54.140 ,5,0,,0,3.,4.8,1.,4.8,,0,0.,4.8,0.,4.8
1979-03-09 09:21:58.940 ,6,0,,0,3.,4.8,0.,4.8,,0,0.,4.8,2.,4.8
1979-03-09 09:22:03.740 ,6,0,,0,3.,4.8,1.,4.8,,0,0.,4.8,0.,4.8
1979-03-09 09:22:08.540 ,6,0,,0,1.,4.8,0.,4.8,,0,0.,4.8,1.,4.8
1979-03-09 09:22:13.340 ,6,0,,0,0.,4.8,0.,4.8,,0,0.,4.8,1.,4.8
1979-03-09 09:22:18.140 ,6,0,,0,0.,4.8,0.,4.8,,0,0.,4.8,0.,4.8
1979-03-09 09:22:22.940 ,7,0,,0,0.,4.8,0.,4.8,,0,0.,4.8,1.,4.8
1979-03-09 09:22:27.740 ,7,0,,0,0.,4.8,0.,4.8,,0,0.,4.8,0.,4.8
1979-03-09 09:22:32.540 ,7,0,,0,0.,4.8,0.,4.8,,0,0.,4.8,0.,4.8
1979-03-09 09:22:37.340 ,7,0,,0,6.,4.8,0.,4.8,,0,0.,4.8,0.,4.8
1979-03-09 09:22:42.140 ,7,0,,0,3.,4.8,0.,4.8,,0,0.,4.8,0.,4.8
1979-03-09 09:22:46.940 ,7,0,,0,11.,4.8,0.,4.8,,0,0.,4.8,0.,4.8
1979-03-09 09:22:51.740 ,7,0,,0,4.,4.8,0.,4.8,,0,0.,4.8,0.,4.8
1979-03-09 09:22:56.540 ,7,0,,0,2.,4.8,0.,4.8,,0,0.,4.8,0.,4.8
1979-03-09 09:23:01.340 ,7,0,,0,1.,4.8,0.,4.8,,0,0.,4.8,0.,4.8
1979-03-09 09:23:06.140 ,7,0,,0,0.,4.8,0.,4.8,,0,0.,4.8,0.,4.8
1979-03-09 09:23:10.940 ,6,0,,0,0.,4.8,0.,4.8,,0,0.,4.8,0.,4.8
1979-03-09 09:23:15.740 ,6,0,,0,0.,4.8,0.,4.8,,0,0.,4.8,0.,4.8
1979-03-09 09:23:20.540 ,6,0,,0,0.,4.8,0.,4.8,,0,0.,4.8,0.,4.8
1979-03-09 09:23:25.340 ,6,0,,0,0.,4.8,0.,4.8,,0,0.,4.8,0.,4.8
1979-03-09 09:23:30.140 ,6,0,,0,1.,4.8,0.,4.8,,0,0.,4.8,0.,4.8
1979-03-09 09:23:34.940 ,5,0,,0,1.,4.8,0.,4.8,,0,0.,4.8,1.,4.8
1979-03-09 09:23:39.740 ,5,0,,0,3.,4.8,0.,4.8,,0,0.,4.8,1.,4.8
1979-03-09 09:23:44.540 ,5,0,,0,1.,4.8,1.,4.8,,0,0.,4.8,0.,4.8
1979-03-09 09:23:49.340 ,5,0,,0,1.,4.8,0.,4.8,,0,0.,4.8,1.,4.8
1979-03-09 09:23:54.140 ,5,0,,0,0.,4.8,0.,4.8,,0,0.,4.8,0.,4.8
1979-03-09 09:23:58.940 ,4,0,,0,0.,4.8,0.,4.8,,0,0.,4.8,2.,4.8
1979-03-09 09:24:03.740 ,4,0,,0,0.,4.8,0.,4.8,,0,0.,4.8,2.,4.8
1979-03-09 09:24:08.540 ,4,0,,0,0.,4.8,0.,4.8,,0,0.,4.8,1.,4.8
1979-03-09 09:24:13.340 ,4,0,,0,4.,4.8,0.,4.8,,0,0.,4.8,0.,4.8
1979-03-09 09:24:18.140 ,4,0,,0,3.,4.8,1.,4.8,,0,0.,4.8,1.,4.8
1979-03-09 09:24:22.940 ,3,0,,0,3.,4.8,0.,4.8,,0,0.,4.8,1.,4.8
1979-03-09 09:24:27.740 ,3,0,,0,3.,4.8,2.,4.8,,0,0.,4.8,0.,4.8
1979-03-09 09:24:32.540 ,3,0,,0,6.,4.8,0.,4.8,,0,0.,4.8,1.,4.8
1979-03-09 09:24:37.340 ,3,0,,0,0.,4.8,0.,4.8,,0,0.,4.8,3.,4.8
1979-03-09 09:24:42.140 ,3,0,,0,0.,4.8,0.,4.8,,0,0.,4.8,2.,4.8
1979-03-09 09:24:46.940 ,2,0,,0,0.,4.8,0.,4.8,,0,0.,4.8,0.,4.8
1979-03-09 09:24:51.740 ,2,0,,0,0.,4.8,0.,4.8,,0,0.,4.8,0.,4.8
1979-03-09 09:24:56.540 ,2,0,,0,2.,4.8,1.,4.8,,0,0.,4.8,1.,4.8
1979-03-09 09:25:01.340 ,2,0,,0,3.,4.8,0.,4.8,,0,0.,4.8,1.,4.8
1979-03-09 09:25:06.140 ,2,0,,0,2.,4.8,0.,4.8,,0,0.,4.8,0.,4.8
1979-03-09 09:25:10.940 ,1,0,,0,2.,4.8,0.,4.8,,0,0.,4.8,1.,4.8
1979-03-09 09:25:15.740 ,1,0,,0,1.,4.8,1.,4.8,,0,0.,4.8,0.,4.8
1979-03-09 09:25:20.540 ,1,0,,0,1.,4.8,1.,4.8,,0,0.,4.8,1.,4.8
1979-03-09 09:25:25.340 ,1,0,,0,0.,4.8,0.,4.8,,0,0.,4.8,1.,4.8
1979-03-09 09:25:30.140 ,1,0,,0,0.,4.8,0.,4.8,,0,0.,4.8,0.,4.8
1979-03-09 09:25:34.940 ,0,0,,0,0.,4.8,0.,4.8,,0,0.,4.8,1.,4.8
1979-03-09 09:25:39.740 ,0,0,,0,0.,4.8,0.,4.8,,0,0.,4.8,0.,4.8
1979-03-09 09:25:44.540 ,0,0,,0,0.,4.8,0.,4.8,,0,0.,4.8,0.,4.8
1979-03-09 09:25:49.340 ,0,0,,0,1.,4.8,0.,4.8,,0,0.,4.8,1.,4.8
1979-03-09 09:25:54.140 ,0,0,,0,1.,4.8,0.,4.8,,0,0.,4.8,1.,4.8
1979-03-09 09:25:58.940 ,0,0,,0,0.,4.8,0.,4.8,,0,0.,4.8,0.,4.8
1979-03-09 09:26:03.740 ,0,0,,0,0.,4.8,0.,4.8,,0,0.,4.8,0.,4.8
1979-03-09 09:26:08.540 ,0,0,,0,0.,4.8,0.,4.8,,0,0.,4.8,1.,4.8
1979-03-09 09:26:13.340 ,0,0,,0,0.,4.8,0.,4.8,,0,0.,4.8,2.,4.8
1979-03-09 09:26:18.140 ,0,0,,0,0.,4.8,0.,4.8,,0,0.,4.8,0.,4.8
1979-03-09 09:26:22.940 ,1,0,,0,0.,4.8,0.,4.8,,0,0.,4.8,1.,4.8
1979-03-09 09:26:27.740 ,1,0,,0,0.,4.8,0.,4.8,,0,0.,4.8,1.,4.8
1979-03-09 09:26:32.540 ,1,0,,0,0.,4.8,0.,4.8,,0,0.,4.8,0.,4.8
1979-03-09 09:26:37.340 ,1,0,,0,1.,4.8,0.,4.8,,0,0.,4.8,1.,4.8
1979-03-09 09:26:42.140 ,1,0,,0,0.,4.8,0.,4.8,,0,0.,4.8,2.,4.8
1979-03-09 09:26:46.940 ,2,0,,0,1.,4.8,0.,4.8,,0,0.,4.8,1.,4.8
1979-03-09 09:26:51.740 ,2,0,,0,2.,4.8,0.,4.8,,0,0.,4.8,1.,4.8
1979-03-09 09:26:56.540 ,2,0,,0,3.,4.8,0.,4.8,,0,0.,4.8,3.,4.8
1979-03-09 09:27:01.340 ,2,0,,0,0.,4.8,0.,4.8,,0,0.,4.8,1.,4.8
1979-03-09 09:27:06.140 ,2,0,,0,0.,4.8,0.,4.8,,0,0.,4.8,1.,4.8
1979-03-09 09:27:10.940 ,3,0,,0,0.,4.8,0.,4.8,,0,0.,4.8,1.,4.8
1979-03-09 09:27:15.740 ,3,0,,0,0.,4.8,0.,4.8,,0,0.,4.8,1.,4.8
1979-03-09 09:27:20.540 ,3,0,,0,1.,4.8,0.,4.8,,0,0.,4.8,2.,4.8
1979-03-09 09:27:25.340 ,3,0,,0,1.,4.8,0.,4.8,,0,0.,4.8,1.,4.8
1979-03-09 09:27:30.140 ,3,0,,0,3.,4.8,1.,4.8,,0,0.,4.8,1.,4.8
1979-03-09 09:27:34.940 ,4,0,,0,3.,4.8,2.,4.8,,0,0.,4.8,3.,4.8
1979-03-09 09:27:39.740 ,4,0,,0,4.,4.8,1.,4.8,,0,0.,4.8,2.,4.8
1979-03-09 09:27:44.540 ,4,0,,0,1.,4.8,0.,4.8,,0,0.,4.8,1.,4.8
1979-03-09 09:27:49.340 ,4,0,,0,0.,4.8,0.,4.8,,0,0.,4.8,1.,4.8
1979-03-09 09:27:54.140 ,4,0,,0,0.,4.8,0.,4.8,,0,0.,4.8,1.,4.8
1979-03-09 09:27:58.930 ,5,0,,0,0.,4.8,0.,4.8,,0,0.,4.8,3.,4.8
1979-03-09 09:28:03.730 ,5,0,,0,0.,4.8,0.,4.8,,0,0.,4.8,1.,4.8
1979-03-09 09:28:08.530 ,5,0,,0,1.,4.8,0.,4.8,,0,0.,4.8,0.,4.8
1979-03-09 09:28:13.330 ,5,0,,0,2.,4.8,0.,4.8,,0,0.,4.8,1.,4.8
1979-03-09 09:28:18.130 ,5,0,,0,2.,4.8,0.,4.8,,0,0.,4.8,1.,4.8
1979-03-09 09:28:22.930 ,6,0,,0,2.,4.8,0.,4.8,,0,0.,4.8,1.,4.8
1979-03-09 09:28:27.730 ,6,0,,0,3.,4.8,0.,4.8,,0,0.,4.8,0.,4.8
1979-03-09 09:28:32.530 ,6,0,,0,5.,4.8,0.,4.8,,0,0.,4.8,0.,4.8
1979-03-09 09:28:37.330 ,6,0,,0,0.,4.8,0.,4.8,,0,0.,4.8,2.,4.8
1979-03-09 09:28:42.130 ,6,0,,0,0.,4.8,0.,4.8,,0,0.,4.8,1.,4.8
1979-03-09 09:28:46.930 ,7,0,,0,0.,4.8,0.,4.8,,0,0.,4.8,2.,4.8
1979-03-09 09:28:51.730 ,7,0,,0,0.,4.8,0.,4.8,,0,0.,4.8,0.,4.8
1979-03-09 09:28:56.530 ,7,0,,0,0.,4.8,0.,4.8,,0,0.,4.8,0.,4.8
1979-03-09 09:29:01.330 ,7,0,,0,7.,4.8,0.,4.8,,0,0.,4.8,0.,4.8
1979-03-09 09:29:06.130 ,7,0,,0,3.,4.8,0.,4.8,,0,0.,4.8,0.,4.8
1979-03-09 09:29:10.930 ,7,0,,0,3.,4.8,0.,4.8,,0,0.,4.8,0.,4.8
1979-03-09 09:29:15.730 ,7,0,,0,3.,4.8,0.,4.8,,0,0.,4.8,0.,4.8
1979-03-09 09:29:20.530 ,7,0,,0,5.,4.8,0.,4.8,,0,0.,4.8,0.,4.8
1979-03-09 09:29:25.330 ,7,0,,0,0.,4.8,0.,4.8,,0,0.,4.8,0.,4.8
1979-03-09 09:29:30.130 ,7,0,,0,0.,4.8,0.,4.8,,0,0.,4.8,0.,4.8
1979-03-09 09:29:34.930 ,6,0,,0,0.,4.8,0.,4.8,,0,0.,4.8,0.,4.8
1979-03-09 09:29:39.730 ,6,0,,0,0.,4.8,0.,4.8,,0,0.,4.8,0.,4.8
1979-03-09 09:29:44.530 ,6,0,,0,0.,4.8,0.,4.8,,0,0.,4.8,1.,4.8
1979-03-09 09:29:49.330 ,6,0,,0,1.,4.8,0.,4.8,,0,0.,4.8,0.,4.8
1979-03-09 09:29:54.130 ,6,0,,0,2.,4.8,1.,4.8,,0,0.,4.8,0.,4.8
1979-03-09 09:29:58.930 ,5,0,,0,2.,4.8,0.,4.8,,0,0.,4.8,2.,4.8
1979-03-09 09:30:03.730 ,5,0,,0,6.,4.8,0.,4.8,,0,0.,4.8,1.,4.8
1979-03-09 09:30:08.530 ,5,0,,0,0.,4.8,0.,4.8,,0,0.,4.8,0.,4.8